FENGYUN 1C DEB

Satellite information

Favourite Embed

Satellite Type and Status

DEBRISIN ORBIT

Key statistics

Satellite FENGYUN 1C DEB at a glance.

Uptime

9495

Days in orbit

Revolutions

≈ 14.2

Per day

Orbit

SSO

Sun Synchronous Orbit

Inclination

98.5

Latest

Satellite identification and parameters

Extended collection of information and parameters for FENGYUN 1C DEB.

Object identification

Identified? True

Debris? True

Object name: FENGYUN 1C DEB

International designator: 1999-025DUF

Object number (NORAD): 36206

Object ID (CCSDS): 36206

Country: PEOPLES REPUBLIC OF CHINA (PRC)

Current information (Y/N): Y

RCS size: SMALL

Orbital parameters

Period: 101.343 minutes

Inclination: 98.493 deg

SMA: 7200.383 km

Apoapsis: 843.013 km

Periapsis: 801.483 km

RAAN: 154.1121 deg

Eccentricy: 0.0028839

Argument of periapsis: 311.0572 deg

Mean anomaly: 48.8114 deg

Mean motion: 14.20919087 rev/day

Mean motion (dot): 0.00002065 rev/day2

B* drag term: 0.00096919 1/REarth

Two-line elements (TLE)

Creation date: May 6, 2025, 10:46 p.m.

Reference frame: TEME

Reference center: EARTH

Epoch: May 2, 2025, 7:41 a.m. UTC

TLE line 0: 0 FENGYUN 1C DEB

TLE line 1: 1 36206U 99025DUF 25122.32083314 .00002065 00000-0 96919-3 0 9998

TLE line 2: 2 36206 98.4930 154.1121 0028839 311.0572 48.8114 14.20919087900181

Live tracking on map

Real-time ground track for satellite FENGYUN 1C DEB.

In-orbit conjunctions

A list of the most updated potential collisions computed for object FENGYUN 1C DEB.

Target Orbit TCA Probability of collision Miss distance Type
THOR BURNER 2A R/B SSO 2024-08-10 14:15:18 0.0006182568 166.0 (m) ROCKET BODY

Associated space launch

Chinese polar orbiting meteorological satellite

FENGYUN 1C DEB was lifted into orbit during the mission ‘Long March 4B | Feng Yun 1C’, on board a Long March 4B space rocket.

The launch took place on May 10, 1999, 1:33 a.m. from Launch Complex 7.

For more information about the launch, click the button.

Launch to space Long March 4B | Feng Yun 1C
Long March 4B | Feng Yun 1C

Agency: N/A

Status: Launch Successful

Launch date: May 10, 1999, 1:33 a.m. UTC

Rocket: Long March 4B

Launch pad: Launch Complex 7

Location: Taiyuan Satellite Launch Center, People's Republic of China

...

Latest news about this satellite

There are no fresh news available about this satellite. Check back as we update our databases every day.


Newsletter sign-up

Weekly statistics, charts and insights to help you stay on top of the space industry.